�������l�o���
Date,Time,MP-1(��Sv/h),MP-2(��Sv/h),MP-3(��Sv/h),MP-4(��Sv/h),MP-5(��Sv/h),MP-6(��Sv/h),MP-7(��Sv/h),����,����(m/s),���J
2015/11/14,00:00,0.500,0.278,0.504,0.470,0.448,0.228,0.198,�k�k��,4.8,��
2015/11/14,00:10,0.503,0.279,0.509,0.466,0.445,0.227,0.198,�k�k��,4.7,��
2015/11/14,00:20,0.500,0.278,0.503,0.470,0.447,0.228,0.198,�k�k��,5.0,��
2015/11/14,00:30,0.506,0.279,0.509,0.469,0.446,0.228,0.199,�k�k��,4.5,��
2015/11/14,00:40,0.501,0.278,0.509,0.470,0.447,0.228,0.198,�k,4.2,��
2015/11/14,00:50,0.502,0.278,0.508,0.466,0.447,0.227,0.199,�k�k��,4.1,��
2015/11/14,01:00,0.504,0.279,0.506,0.467,0.443,0.229,0.198,�k�k��,4.2,��
2015/11/14,01:10,0.500,0.277,0.506,0.469,0.449,0.228,0.198,�k,4.7,��
2015/11/14,01:20,0.503,0.279,0.508,0.467,0.445,0.228,0.199,�k,4.4,��
2015/11/14,01:30,0.500,0.277,0.505,0.471,0.448,0.229,0.198,�k�k��,4.2,��
2015/11/14,01:40,0.503,0.279,0.509,0.468,0.448,0.228,0.199,�k,3.9,��
2015/11/14,01:50,0.502,0.279,0.507,0.469,0.446,0.228,0.198,�k,3.3,��
2015/11/14,02:00,0.504,0.277,0.508,0.468,0.448,0.228,0.198,�k�k��,2.1,��
2015/11/14,02:10,0.502,0.280,0.505,0.467,0.446,0.227,0.198,�k�k��,1.1,��
2015/11/14,02:20,0.499,0.278,0.507,0.472,0.449,0.229,0.199,�k�k��,1.6,��
2015/11/14,02:30,0.503,0.279,0.508,0.467,0.448,0.228,0.199,�k,1.9,��
2015/11/14,02:40,0.501,0.279,0.507,0.470,0.449,0.228,0.199,�k,2.2,��
2015/11/14,02:50,0.504,0.278,0.509,0.469,0.448,0.227,0.198,�k,2.9,��
2015/11/14,03:00,0.500,0.280,0.505,0.470,0.447,0.229,0.198,�k,2.6,��
2015/11/14,03:10,0.503,0.277,0.510,0.469,0.449,0.228,0.199,�k,2.1,��
2015/11/14,03:20,0.500,0.280,0.504,0.467,0.447,0.228,0.198,�k,3.4,��
2015/11/14,03:30,0.503,0.278,0.509,0.470,0.447,0.228,0.199,�k,3.4,��
2015/11/14,03:40,0.501,0.279,0.507,0.468,0.447,0.227,0.199,�k,3.6,��
2015/11/14,03:50,0.501,0.280,0.508,0.470,0.447,0.229,0.198,�k�k��,3.4,��
2015/11/14,04:00,0.505,0.279,0.509,0.468,0.449,0.228,0.199,�k,2.6,��
2015/11/14,04:10,0.502,0.280,0.505,0.468,0.447,0.227,0.199,�k�k��,1.2,��
2015/11/14,04:20,0.506,0.278,0.509,0.470,0.449,0.228,0.198,-,CALM,��
2015/11/14,04:30,0.501,0.280,0.506,0.467,0.445,0.228,0.199,�k,1.4,��
2015/11/14,04:40,0.504,0.279,0.510,0.470,0.448,0.228,0.199,�k,0.8,��
2015/11/14,04:50,0.502,0.280,0.508,0.468,0.447,0.228,0.199,-,CALM,�L
2015/11/14,05:00,0.504,0.279,0.510,0.471,0.448,0.230,0.199,�k,1.9,�L
2015/11/14,05:10,0.504,0.279,0.508,0.469,0.449,0.229,0.199,�k,3.4,�L
2015/11/14,05:20,0.504,0.281,0.509,0.471,0.447,0.229,0.199,�k,4.7,�L
2015/11/14,05:30,0.505,0.279,0.509,0.469,0.449,0.230,0.200,�k,5.1,�L
2015/11/14,05:40,0.503,0.280,0.507,0.468,0.448,0.230,0.199,�k�k��,4.3,�L
2015/11/14,05:50,0.505,0.280,0.511,0.471,0.448,0.231,0.200,�k�k��,3.6,�L
2015/11/14,06:00,0.502,0.280,0.506,0.469,0.449,0.229,0.200,�k,2.7,�L
2015/11/14,06:10,0.505,0.282,0.509,0.469,0.446,0.229,0.200,�k�k��,2.2,�L
2015/11/14,06:20,0.501,0.280,0.506,0.466,0.448,0.229,0.199,�k�k��,2.2,�L
2015/11/14,06:30,0.502,0.282,0.506,0.466,0.445,0.229,0.200,�k,2.4,�L
2015/11/14,06:40,0.503,0.281,0.507,0.466,0.445,0.229,0.199,�k,2.0,�L
2015/11/14,06:50,0.497,0.279,0.504,0.466,0.447,0.228,0.199,�k�k��,1.6,�L
2015/11/14,07:00,0.503,0.281,0.507,0.466,0.442,0.229,0.199,�k��,2.0,�L
2015/11/14,07:10,0.498,0.279,0.504,0.463,0.444,0.229,0.197,�k��,1.1,�L
2015/11/14,07:20,0.499,0.279,0.502,0.462,0.443,0.227,0.198,-,CALM,�L
2015/11/14,07:30,0.498,0.278,0.500,0.465,0.441,0.228,0.197,-,CALM,�L
2015/11/14,07:40,0.495,0.276,0.500,0.460,0.443,0.227,0.198,�k��,0.8,�L
2015/11/14,07:50,0.498,0.278,0.500,0.463,0.440,0.227,0.197,�k��,0.9,�L
2015/11/14,08:00,0.493,0.276,0.498,0.460,0.444,0.227,0.197,�k�k��,0.6,�L
2015/11/14,08:10,0.498,0.278,0.501,0.462,0.442,0.227,0.196,-,CALM,�L
2015/11/14,08:20,0.494,0.276,0.497,0.460,0.442,0.228,0.196,�k��,0.7,�L
2015/11/14,08:30,0.496,0.276,0.497,0.459,0.442,0.226,0.196,-,CALM,�L
2015/11/14,08:40,0.493,0.277,0.497,0.463,0.441,0.227,0.195,-,CALM,�L
2015/11/14,08:50,0.492,0.275,0.495,0.457,0.444,0.226,0.195,�k,8.3,�L
2015/11/14,09:00,0.493,0.276,0.497,0.460,0.439,0.226,0.194,��,4.5,�L
2015/11/14,09:10,0.491,0.275,0.492,0.453,0.442,0.227,0.193,���쐼,3.3,�L
2015/11/14,09:20,0.492,0.275,0.494,0.455,0.439,0.225,0.194,�k,1.5,�L
2015/11/14,09:30,0.489,0.275,0.490,0.453,0.440,0.226,0.194,��쓌,1.3,�L
2015/11/14,09:40,0.489,0.273,0.493,0.453,0.439,0.225,0.193,���쓌,1.6,�L
2015/11/14,09:50,0.487,0.275,0.490,0.454,0.437,0.225,0.194,���쓌,2.2,�L
2015/11/14,10:00,0.490,0.274,0.490,0.451,0.442,0.225,0.193,���쓌,1.5,�L
2015/11/14,10:10,0.487,0.274,0.491,0.455,0.437,0.225,0.194,�쓌,1.4,�L
2015/11/14,10:20,0.490,0.274,0.488,0.454,0.442,0.225,0.194,��,2.5,�L
2015/11/14,10:30,0.490,0.274,0.494,0.455,0.439,0.223,0.193,�쓌,5.0,�L
2015/11/14,10:40,0.488,0.275,0.488,0.454,0.441,0.225,0.194,��쓌,7.2,�L
2015/11/14,10:50,0.491,0.273,0.493,0.453,0.441,0.223,0.194,�쓌,8.0,�L
2015/11/14,11:00,0.487,0.274,0.489,0.453,0.440,0.223,0.193,�쓌,7.0,�L
2015/11/14,11:10,0.492,0.273,0.493,0.451,0.440,0.223,0.192,�쓌,7.2,�L
2015/11/14,11:20,0.485,0.274,0.488,0.456,0.439,0.223,0.192,�쓌,7.4,�L
2015/11/14,11:30,0.490,0.273,0.492,0.451,0.442,0.222,0.192,�쓌,8.2,�L
2015/11/14,11:40,0.487,0.273,0.492,0.456,0.439,0.224,0.192,�쓌,8.9,�L
2015/11/14,11:50,0.489,0.273,0.490,0.452,0.442,0.223,0.191,�쓌,7.3,�L
2015/11/14,12:00,0.486,0.272,0.494,0.454,0.440,0.222,0.192,��쓌,8.8,�L
2015/11/14,12:10,0.489,0.273,0.489,0.454,0.441,0.222,0.193,��쓌,7.2,�L
2015/11/14,12:20,0.486,0.271,0.492,0.452,0.439,0.222,0.191,�쓌,8.4,�L
2015/11/14,12:30,0.490,0.274,0.489,0.455,0.439,0.222,0.191,�쓌,8.4,�L
2015/11/14,12:40,0.489,0.272,0.492,0.453,0.443,0.222,0.193,�쓌,8.7,�L
2015/11/14,12:50,0.486,0.274,0.489,0.456,0.439,0.223,0.191,�쓌,9.6,�L
2015/11/14,13:00,0.490,0.271,0.494,0.452,0.443,0.222,0.192,�쓌,9.8,�L
2015/11/14,13:10,0.486,0.274,0.491,0.456,0.437,0.223,0.192,�쓌,11.2,�L
2015/11/14,13:20,0.489,0.272,0.492,0.451,0.441,0.222,0.191,��쓌,9.5,�L
2015/11/14,13:30,0.486,0.273,0.491,0.456,0.440,0.222,0.192,��쓌,9.6,�L
2015/11/14,13:40,0.489,0.274,0.490,0.453,0.439,0.223,0.190,�쓌,10.2,��
2015/11/14,13:50,0.486,0.272,0.491,0.454,0.443,0.222,0.191,�쓌,11.3,�L
2015/11/14,14:00,0.488,0.273,0.489,0.454,0.438,0.222,0.191,�쓌,10.7,�L
2015/11/14,14:10,0.486,0.272,0.494,0.454,0.441,0.221,0.191,�쓌,12.1,�L
2015/11/14,14:20,0.489,0.273,0.489,0.455,0.437,0.223,0.192,�쓌,11.9,�L
2015/11/14,14:30,0.485,0.273,0.493,0.453,0.442,0.222,0.192,�쓌,10.9,�L
2015/11/14,14:40,0.487,0.274,0.490,0.455,0.439,0.223,0.191,��쓌,10.0,�L
2015/11/14,14:50,0.484,0.271,0.493,0.454,0.442,0.221,0.191,�쓌,10.7,�L
2015/11/14,15:00,0.487,0.271,0.488,0.457,0.440,0.223,0.191,�쓌,9.9,�L
2015/11/14,15:10,0.486,0.272,0.492,0.454,0.439,0.222,0.191,�쓌,10.6,�L
2015/11/14,15:20,0.486,0.271,0.488,0.455,0.440,0.221,0.190,�쓌,7.9,�L
2015/11/14,15:30,0.487,0.273,0.489,0.452,0.437,0.222,0.191,�쓌,8.7,�L
2015/11/14,15:40,0.484,0.269,0.486,0.450,0.439,0.222,0.191,��쓌,10.1,�L
2015/11/14,15:50,0.484,0.271,0.483,0.447,0.433,0.221,0.190,��쓌,9.1,�L
2015/11/14,16:00,0.480,0.271,0.485,0.444,0.437,0.220,0.189,��쓌,9.5,�L
2015/11/14,16:10,0.486,0.272,0.481,0.447,0.434,0.220,0.190,��쓌,9.9,�L
2015/11/14,16:20,0.478,0.271,0.485,0.446,0.439,0.221,0.191,�쓌,10.5,�L
2015/11/14,16:30,0.485,0.271,0.484,0.450,0.436,0.222,0.189,�쓌,8.1,�L
2015/11/14,16:40,0.479,0.271,0.488,0.447,0.439,0.220,0.190,���쓌,9.2,�L
2015/11/14,16:50,0.481,0.271,0.482,0.449,0.436,0.221,0.190,��쓌,11.1,�L
2015/11/14,17:00,0.481,0.273,0.487,0.446,0.437,0.221,0.190,�쓌,9.4,�L
2015/11/14,17:10,0.483,0.270,0.485,0.449,0.436,0.222,0.191,�쓌,9.8,�L
2015/11/14,17:20,0.481,0.272,0.487,0.448,0.437,0.220,0.190,�쓌,9.8,�L
2015/11/14,17:30,0.483,0.270,0.483,0.449,0.438,0.220,0.189,�쓌,8.8,�L
2015/11/14,17:40,0.482,0.271,0.485,0.447,0.435,0.221,0.190,��쓌,9.8,�L
2015/11/14,17:50,0.481,0.270,0.484,0.448,0.440,0.221,0.189,��쓌,9.2,�L
2015/11/14,18:00,0.481,0.272,0.485,0.447,0.436,0.221,0.190,��,10.7,�L
2015/11/14,18:10,0.482,0.270,0.486,0.448,0.438,0.221,0.189,��쐼,10.6,�L
2015/11/14,18:20,0.482,0.271,0.487,0.450,0.436,0.220,0.189,��쐼,9.8,�L
2015/11/14,18:30,0.480,0.269,0.487,0.447,0.440,0.221,0.189,��쐼,9.2,�L
2015/11/14,18:40,0.480,0.270,0.485,0.448,0.436,0.220,0.189,��쐼,8.6,�L
2015/11/14,18:50,0.479,0.270,0.484,0.445,0.438,0.219,0.189,��쐼,9.1,�L
2015/11/14,19:00,0.480,0.269,0.483,0.448,0.435,0.219,0.188,��쐼,9.5,�L
2015/11/14,19:10,0.477,0.272,0.484,0.445,0.436,0.219,0.188,��쐼,8.8,�L
2015/11/14,19:20,0.479,0.269,0.481,0.447,0.434,0.219,0.188,��쐼,9.2,�L
2015/11/14,19:30,0.476,0.270,0.484,0.444,0.434,0.218,0.188,��쐼,8.2,�L
2015/11/14,19:40,0.479,0.268,0.479,0.446,0.435,0.219,0.188,��,8.4,�L
2015/11/14,19:50,0.476,0.270,0.485,0.444,0.437,0.219,0.188,��,7.6,�L
2015/11/14,20:00,0.480,0.269,0.481,0.447,0.437,0.220,0.189,��쐼,6.9,�L
2015/11/14,20:10,0.475,0.271,0.488,0.447,0.436,0.219,0.189,��,7.0,�L
2015/11/14,20:20,0.477,0.269,0.480,0.447,0.440,0.220,0.188,��,9.3,�L
2015/11/14,20:30,0.475,0.271,0.485,0.447,0.433,0.219,0.188,��,10.0,�L
2015/11/14,20:40,0.480,0.269,0.483,0.447,0.440,0.220,0.189,��,7.1,�L
2015/11/14,20:50,0.476,0.270,0.487,0.448,0.434,0.218,0.189,��쐼,7.6,�L
2015/11/14,21:00,0.481,0.269,0.483,0.448,0.439,0.220,0.188,��쐼,7.1,�L
2015/11/14,21:10,0.476,0.269,0.486,0.450,0.433,0.218,0.189,��쐼,7.6,�L
2015/11/14,21:20,0.479,0.270,0.482,0.444,0.439,0.220,0.188,��쐼,8.3,�L
2015/11/14,21:30,0.474,0.269,0.485,0.447,0.435,0.219,0.188,��쐼,8.1,�L
2015/11/14,21:40,0.479,0.270,0.480,0.444,0.436,0.219,0.189,��쐼,7.8,�L
2015/11/14,21:50,0.475,0.268,0.483,0.447,0.436,0.219,0.188,��쐼,7.0,�L
2015/11/14,22:00,0.479,0.269,0.484,0.445,0.436,0.219,0.189,��쐼,6.2,�L
2015/11/14,22:10,0.474,0.268,0.485,0.448,0.438,0.219,0.188,��쐼,6.5,�L
2015/11/14,22:20,0.477,0.271,0.482,0.446,0.436,0.218,0.188,��,5.4,�L
2015/11/14,22:30,0.476,0.269,0.484,0.448,0.438,0.217,0.188,��,5.1,�L
2015/11/14,22:40,0.477,0.271,0.483,0.446,0.436,0.218,0.189,��,4.8,�L
2015/11/14,22:50,0.477,0.269,0.484,0.449,0.439,0.219,0.189,��,4.0,�L
2015/11/14,23:00,0.476,0.270,0.482,0.446,0.435,0.218,0.189,��,3.7,�L
2015/11/14,23:10,0.475,0.267,0.482,0.446,0.438,0.218,0.189,��,4.1,�L
2015/11/14,23:20,0.475,0.270,0.483,0.445,0.434,0.217,0.187,��쐼,3.9,�L
2015/11/14,23:30,0.474,0.269,0.484,0.446,0.437,0.218,0.188,��,3.8,�L
2015/11/14,23:40,0.475,0.270,0.483,0.445,0.434,0.218,0.187,��,4.1,�L
2015/11/14,23:50,0.475,0.269,0.481,0.445,0.440,0.218,0.186,��,4.8,�L
